824  
NZUS01 KOTX 220025  
RWROTX  
 
EASTERN WASHINGTON/NORTHERN IDAHO ROUNDUP  
NATIONAL WEATHER SERVICE, SPOKANE WA  
500 PM PDT THU SEP 21 2017  
 
NOTE: "FAIR" INDICATED FEW OR NO CLOUDS BELOW 12,000 FEET WITH NO  
SIGNIFICANT WEATHER AND/OR S TO VISIBILITY
.  
   
..NORTHEAST WASHINGTON AND NORTHERN IDAHO PANHANDLE
 
 
 
CITY SKY/WX TMP DP RH WIND PRES REMARKS
 
SPOKANE INTL CLOUDY 50 41 71 E5 29.92R  
SPOKANE DOWNTO CLOUDY 52 43 71 E3 29.93R  
COEUR D ALENE PTSUNNY 49 41 74 CALM 29.94R  
DEER PARK CLOUDY 50 41 71 E6 29.93R  
SANDPOINT CLOUDY 50 41 71 CALM 29.95R  
BONNERS FERRY CLOUDY 48 41 76 CALM 29.95R  
   
..SOUTHEAST WASHINGTON AND SOUTHERN IDAHO PANHANDLE
 
 
 
CITY SKY/WX TMP DP RH WIND PRES REMARKS
 
WALLA WALLA CLOUDY 60 40 47 W3 29.89S  
PULLMAN/MOSCOW MOSUNNY 51 39 63 VRB6 29.92R  
LEWISTON MOSUNNY 58 41 53 N7 29.89R  
LOWELL N/A 52 43 71 CALM 29.88S  
GRANGEVILLE CLOUDY 46 37 71 N8 29.89R  
   
..COLUMBIA BASIN
 
 
 
CITY SKY/WX TMP DP RH WIND PRES REMARKS
 
EPHRATA CLOUDY 59 31 34 E10 29.90R  
MOSES LAKE CLOUDY 59 40 49 W9 29.90R  
PASCO PTSUNNY 64 41 42 N3 29.90R  
RICHLAND MOCLDY 64 43 46 CALM 29.90S  
HERMISTON MOSUNNY 61 41 47 N6 29.88R  
PENDLETON CLOUDY 61 36 39 NW5 29.88S  
   
..EAST SLOPES CASCADES
 
 
 
CITY SKY/WX TMP DP RH WIND PRES REMARKS
 
THE DALLES CLOUDY 61 45 55 CALM 29.90S  
YAKIMA CLOUDY 60 41 49 VRB3 29.91R  
ELLENSBURG LGT RAIN 55 43 63 E5 29.91R  
STAMPEDE PASS PTSUNNY 42 41 96 VRB5 29.94R FOG  
WENATCHEE LGT RAIN 55 45 68 S7 29.91S  
OMAK CLOUDY 62 36 37 N14 29.91R  
CHELAN N/A 57 37 47 S10 N/A  
SUNNYSIDE LGT RAIN 57 42 58 CALM 29.90S  
   
..SOUTHERN BRITISH COLUMBIA
 
 
 
CITY SKY/WX TMP DP RH WIND PRES REMARKS
 
PENTICTON PTSUNNY 61 37 41 CALM 29.91R  
CASTLEGAR CLOUDY 55 37 50 N3 29.90R  
CRANBROOK CLOUDY 48 34 57 W7 29.93R  
OSOYOOS N/A 61 36 39 NW3 N/A  
CRESTON N/A 50 43 76 S2 N/A  
   
..WESTERN MONTANA
 
 
 
CITY SKY/WX TMP DP RH WIND PRES REMARKS
 
KALISPELL MOCLDY 52 36 54 NW6 29.89R  
LIBBY N/A 52 37 58 SW8 29.90R  
MISSOULA CLOUDY 51 35 54 W8 29.88R  
   
..NEIGHBORING CITIES
 
 
 
CITY SKY/WX TMP DP RH WIND PRES REMARKS
 
SEATTLE MOSUNNY 62 45 53 NE3 29.96S  
PORTLAND PTSUNNY 61 47 59 CALM 29.94S  
BOISE PTSUNNY 56 31 38 N13 29.79S  
GREAT FALLS CLOUDY 52 27 38 E5 29.89R  
CALGARY LGT RAIN 37 34 87 NW14 29.97R  
 
CLICK HERE TO GO TO PREVIOUS BULLETINS.

The Nexlab WA Page
The Nexlab ID Page Main Text Page